DW9686 Weather Reports


time (UTC)temp
F
wind
direction
speed
knots
gust
knots
rain 1hr
in
rain 24hr
in
rain mn
in
humidity
%
barometer
mb
20260904181536 64 130 2.6 7.0 0.00 0.00 0.00 63 1014.0
20260904180039 64 133 1.7 6.1 0.00 0.00 0.00 63 1013.9
20260904174536 63 132 1.7 7.0 0.00 0.00 0.00 65 1013.9
20260904173040 62 124 4.3 7.8 0.00 0.00 0.00 66 1013.9
20260904171605 61 159 3.5 7.0 0.00 0.00 0.00 68 1013.8
20260904170039 60 0 1.7 6.1 0.00 0.00 0.00 68 1013.7
20260904164539 60 142 3.5 7.0 0.00 0.00 0.00 73 1013.6
20260904163049 58 129 0.9 3.5 0.00 0.00 0.00 77 1013.5
20260904161542 56 129 0.9 4.3 0.00 0.00 0.00 78 1013.8
20260904160046 55 130 2.6 4.3 0.00 0.00 0.00 80 1013.7
20260904154536 55 151 1.7 5.2 0.00 0.00 0.00 81 1013.7
20260904153103 54 151 1.7 5.2 0.00 0.00 0.00 81 1013.7
20260904151540 54 151 2.6 4.3 0.00 0.00 0.00 81 1013.5
20260904150039 53 151 0.0 4.3 0.00 0.00 0.00 81 1013.3
20260904144536 53 151 0.9 4.3 0.00 0.00 0.00 82 1013.1
20260904143047 52 151 0.9 3.5 0.00 0.00 0.00 84 1012.6
20260904141540 50 151 0.0 4.3 0.00 0.00 0.00 86 1012.4
20260904140043 49 0 0.0 0.0 0.00 0.00 0.00 86 1012.2
20260904134537 48 0 0.0 4.3 0.00 0.00 0.00 85 1012.1
20260904133040 49 151 0.9 2.6 0.00 0.00 0.00 83 1012.0
20260904131543 50 151 0.9 4.3 0.00 0.00 0.00 83 1011.9
20260904130040 49 151 0.9 2.6 0.00 0.00 0.00 83 1011.9
20260904124539 50 151 0.0 1.7 0.00 0.00 0.00 83 1011.7
20260904123042 50 151 0.9 2.6 0.00 0.00 0.00 83 1011.7
20260904121536 50 151 0.0 2.6 0.00 0.00 0.00 83 1011.5
20260904120046 50 0 0.0 0.0 0.00 0.00 0.00 82 1011.5
20260904114538 51 0 0.9 4.3 0.00 0.00 0.00 83 1011.2
20260904113039 50 0 0.0 0.9 0.00 0.00 0.00 82 1011.0
20260904111536 50 0 0.0 2.6 0.00 0.00 0.00 82 1010.8
20260904110039 51 0 0.0 0.9 0.00 0.00 0.00 81 1010.7
20260904104540 51 0 0.9 2.6 0.00 0.00 0.00 80 1010.6
20260904103042 52 151 0.9 2.6 0.00 0.00 0.00 81 1010.6
20260904101540 52 0 0.0 0.0 0.00 0.00 0.00 80 1010.4
20260904100035 52 0 0.0 1.7 0.00 0.00 0.00 79 1010.1
20260904094537 52 0 0.0 1.7 0.00 0.00 0.00 79 1009.9
20260904093037 52 0 0.0 2.6 0.00 0.00 0.00 79 1009.7
20260904091539 52 151 0.9 2.6 0.00 0.00 0.00 79 1009.6
20260904090035 52 151 0.9 4.3 0.00 0.00 0.00 80 1009.6
20260904084543 52 151 0.9 2.6 0.00 0.00 0.00 79 1009.8
20260904083041 53 0 0.0 1.7 0.00 0.00 0.00 79 1009.6
20260904081539 53 0 0.0 0.9 0.00 0.00 0.00 77 1009.6
20260904080055 54 0 0.0 1.7 0.00 0.00 0.00 77 1009.6
20260904074538 54 0 0.0 2.6 0.00 0.00 0.00 77 1009.7
20260904073037 55 0 0.0 2.6 0.00 0.00 0.00 75 1009.6
20260904071541 56 0 0.0 2.6 0.00 0.00 0.00 74 1009.7
20260904070046 56 0 0.0 2.6 0.00 0.00 0.00 72 1009.7
20260904064534 56 151 0.9 2.6 0.00 0.00 0.00 72 1009.8
20260904063047 56 151 1.7 4.3 0.00 0.00 0.00 72 1009.7
20260904061539 56 151 0.9 1.7 0.00 0.00 0.00 73 1009.5
20260904060046 56 0 0.0 0.9 0.00 0.00 0.00 73 1009.4
20260904054546 55 0 0.0 4.3 0.00 0.00 0.00 74 1009.4
20260904053056 56 151 2.6 6.1 0.00 0.00 0.00 72 1009.2
20260904051543 57 152 4.3 8.7 0.00 0.00 0.00 70 1009.2
20260904050037 58 145 6.1 12.2 0.00 0.00 0.00 69 1009.2
20260904044542 59 140 7.8 13.0 0.00 0.00 0.00 68 1008.9
20260904043052 59 155 1.7 5.2 0.00 0.00 0.00 69 1008.8
20260904041540 59 0 0.0 0.0 0.00 0.00 0.00 69 1008.5
20260904040042 59 0 0.0 1.7 0.00 0.00 0.00 70 1008.6
20260904034541 60 0 0.0 2.6 0.00 0.00 0.00 72 1008.5
20260904033040 60 0 0.9 4.3 0.00 0.00 0.00 70 1008.5
20260904031538 60 0 0.0 4.3 0.00 0.00 0.00 70 1008.5
20260904030055 61 155 1.7 5.2 0.00 0.00 0.00 69 1008.3
20260904024543 62 155 2.6 4.3 0.00 0.01 0.00 67 1008.1
20260904023042 62 0 0.0 0.0 0.00 0.01 0.00 68 1008.0
20260904021550 63 0 0.0 5.2 0.00 0.01 0.00 67 1008.0
20260904020036 63 155 0.9 2.6 0.00 0.01 0.00 69 1008.2
20260904014542 64 155 0.9 3.5 0.00 0.01 0.00 67 1008.3
20260904013037 64 0 1.7 4.3 0.00 0.01 0.00 66 1008.2
20260904011542 64 155 1.7 4.3 0.00 0.01 0.00 66 1008.2
20260904010036 65 155 1.7 5.2 0.00 0.01 0.00 60 1008.3
20260904004538 66 155 3.5 7.0 0.00 0.01 0.00 56 1008.4
20260904003037 66 155 4.3 7.8 0.00 0.01 0.00 56 1008.5
20260904001537 66 156 4.3 7.8 0.00 0.01 0.00 56 1008.6
20260904000038 66 163 4.3 8.7 0.00 0.01 0.00 54 1008.7
20260903234540 67 167 5.2 9.6 0.00 0.01 0.00 53 1008.7
20260903233039 67 180 4.3 7.0 0.00 0.01 0.00 53 1008.7
20260903231545 67 191 2.6 7.0 0.00 0.01 0.00 52 1008.9
20260903230041 68 188 6.1 10.4 0.00 0.01 0.00 51 1009.0
20260903224539 68 149 6.1 9.6 0.00 0.01 0.00 48 1009.2
20260903223040 66 205 5.2 10.4 0.00 0.01 0.00 53 1009.5
20260903221541 66 200 6.1 9.6 0.00 0.01 0.00 57 1009.3
20260903220044 66 171 4.3 10.4 0.00 0.01 0.00 57 1009.4
20260903214537 66 196 6.1 12.2 0.00 0.01 0.00 52 1009.4
20260903213039 66 186 4.3 10.4 0.00 0.01 0.00 58 1009.7
20260903211544 66 155 6.1 9.6 0.00 0.01 0.00 52 1009.8
20260903210052 66 174 5.2 7.8 0.00 0.01 0.00 55 1009.8
20260903204545 66 161 5.2 12.2 0.00 0.01 0.00 56 1009.9
20260903203036 65 171 6.1 10.4 0.00 0.01 0.00 60 1010.0
20260903201537 65 177 5.2 8.7 0.00 0.01 0.00 59 1009.9
20260903200037 64 184 7.0 10.4 0.00 0.01 0.00 59 1010.1
20260903194538 64 178 7.0 10.4 0.00 0.01 0.00 59 1010.3
20260903193036 64 184 5.2 9.6 0.00 0.01 0.00 61 1010.4
20260903191537 64 186 6.1 9.6 0.00 0.01 0.00 62 1010.5
20260903190041 64 220 3.5 7.8 0.00 0.01 0.00 61 1010.7
20260903184544 63 238 1.7 7.8 0.00 0.01 0.00 61 1011.1
20260903183045 63 215 3.5 7.0 0.00 0.01 0.00 66 1011.1